| time (UTC) | temp F | wind direction | speed knots | gust knots | rain 1hr in | rain 24hr in | rain mn in | humidity % | barometer mb |
| 20260901191515 | 87 | 173 | 3.5 | 7.8 | 0.00 | 0.00 | 0.00 | 72 | 1014.1 |
| 20260901190513 | 89 | 316 | 1.7 | 10.4 | 0.00 | 0.00 | 0.00 | 68 | 1014.0 |
| 20260901185533 | 89 | 234 | 1.7 | 10.4 | 0.00 | 0.01 | 0.00 | 69 | 1014.0 |
| 20260901184519 | 88 | 338 | 3.5 | 6.1 | 0.00 | 0.01 | 0.00 | 71 | 1013.9 |
| 20260901183511 | 88 | 342 | 1.7 | 9.6 | 0.00 | 0.01 | 0.00 | 72 | 1013.9 |
| 20260901182514 | 88 | 172 | 3.5 | 9.6 | 0.00 | 0.01 | 0.00 | 71 | 1014.0 |
| 20260901181512 | 88 | 315 | 1.7 | 9.6 | 0.00 | 0.01 | 0.00 | 71 | 1013.9 |
| 20260901180511 | 87 | 186 | 1.7 | 12.2 | 0.00 | 0.01 | 0.00 | 72 | 1013.9 |
| 20260901175529 | 86 | 319 | 1.7 | 9.6 | 0.00 | 0.01 | 0.00 | 74 | 1014.0 |
| 20260901174510 | 86 | 249 | 3.5 | 10.4 | 0.00 | 0.01 | 0.00 | 74 | 1014.1 |
| 20260901173510 | 87 | 178 | 3.5 | 7.8 | 0.00 | 0.01 | 0.00 | 73 | 1014.0 |
| 20260901172512 | 86 | 195 | 1.7 | 7.8 | 0.00 | 0.01 | 0.00 | 72 | 1014.1 |
| 20260901171507 | 86 | 146 | 1.7 | 7.8 | 0.00 | 0.01 | 0.00 | 73 | 1014.1 |
| 20260901170509 | 85 | 342 | 1.7 | 6.1 | 0.00 | 0.01 | 0.00 | 76 | 1014.0 |
| 20260901165510 | 85 | 331 | 1.7 | 7.8 | 0.00 | 0.01 | 0.00 | 75 | 1014.2 |
| 20260901164509 | 85 | 244 | 1.7 | 9.6 | 0.00 | 0.01 | 0.00 | 76 | 1014.5 |
| 20260901163509 | 84 | 266 | 1.7 | 7.8 | 0.00 | 0.01 | 0.00 | 77 | 1014.5 |
| 20260901162509 | 84 | 237 | 1.7 | 7.8 | 0.00 | 0.01 | 0.00 | 78 | 1014.7 |
| 20260901161510 | 83 | 296 | 1.7 | 6.1 | 0.00 | 0.01 | 0.00 | 80 | 1014.8 |
| 20260901160503 | 83 | 308 | 1.7 | 6.1 | 0.00 | 0.01 | 0.00 | 80 | 1014.8 |
| 20260901155504 | 83 | 151 | 1.7 | 6.1 | 0.00 | 0.01 | 0.00 | 80 | 1014.8 |
| 20260901154501 | 82 | 227 | 1.7 | 7.8 | 0.00 | 0.01 | 0.00 | 80 | 1014.8 |
| 20260901153501 | 82 | 182 | 1.7 | 6.1 | 0.00 | 0.01 | 0.00 | 81 | 1014.8 |
| 20260901152503 | 81 | 184 | 0.0 | 7.8 | 0.00 | 0.01 | 0.00 | 82 | 1014.8 |
| 20260901151501 | 81 | 240 | 1.7 | 7.8 | 0.00 | 0.01 | 0.00 | 83 | 1014.9 |
| 20260901150516 | 81 | 170 | 1.7 | 4.3 | 0.00 | 0.01 | 0.00 | 83 | 1014.8 |
| 20260901145504 | 80 | 181 | 0.0 | 4.3 | 0.00 | 0.01 | 0.00 | 85 | 1014.9 |
| 20260901144503 | 79 | 189 | 0.0 | 6.1 | 0.00 | 0.01 | 0.00 | 87 | 1014.8 |
| 20260901143501 | 77 | 285 | 0.0 | 3.5 | 0.00 | 0.01 | 0.00 | 91 | 1014.9 |
| 20260901142502 | 76 | 174 | 0.0 | 6.1 | 0.00 | 0.01 | 0.00 | 93 | 1014.9 |
| 20260901141502 | 75 | 270 | 1.7 | 4.3 | 0.00 | 0.01 | 0.00 | 94 | 1014.8 |
| 20260901140504 | 75 | 200 | 0.0 | 0.0 | 0.00 | 0.01 | 0.00 | 95 | 1014.8 |
| 20260901135502 | 74 | 317 | 0.0 | 0.0 | 0.00 | 0.01 | 0.00 | 95 | 1014.8 |
| 20260901134502 | 74 | 299 | 0.0 | 3.5 | 0.00 | 0.01 | 0.00 | 95 | 1014.8 |
| 20260901133501 | 74 | 309 | 0.0 | 3.5 | 0.00 | 0.01 | 0.00 | 95 | 1015.0 |
| 20260901132504 | 73 | 183 | 0.0 | 3.5 | 0.00 | 0.01 | 0.00 | 95 | 1014.9 |
| 20260901131501 | 73 | 261 | 0.0 | 1.7 | 0.00 | 0.01 | 0.00 | 95 | 1014.8 |
| 20260901130458 | 72 | 177 | 1.7 | 4.3 | 0.00 | 0.01 | 0.00 | 95 | 1014.8 |
| 20260901125501 | 72 | 191 | 1.7 | 6.1 | 0.00 | 0.01 | 0.00 | 95 | 1014.9 |
| 20260901124455 | 71 | 190 | 1.7 | 4.3 | 0.00 | 0.01 | 0.00 | 95 | 1014.9 |
| 20260901123456 | 71 | 202 | 0.0 | 3.5 | 0.00 | 0.01 | 0.00 | 95 | 1014.8 |
| 20260901122500 | 70 | 180 | 0.0 | 0.0 | 0.00 | 0.01 | 0.00 | 94 | 1014.7 |
| 20260901121457 | 69 | 180 | 0.0 | 0.0 | 0.00 | 0.01 | 0.00 | 93 | 1014.5 |
| 20260901120457 | 69 | 180 | 0.0 | 0.0 | 0.00 | 0.01 | 0.00 | 93 | 1014.6 |
| 20260901115459 | 69 | 180 | 0.0 | 0.0 | 0.00 | 0.01 | 0.00 | 93 | 1014.5 |
| 20260901114457 | 69 | 180 | 0.0 | 0.0 | 0.00 | 0.01 | 0.00 | 93 | 1014.5 |
| 20260901113457 | 69 | 180 | 0.0 | 0.0 | 0.00 | 0.01 | 0.00 | 92 | 1014.5 |
| 20260901112456 | 69 | 180 | 0.0 | 0.0 | 0.00 | 0.01 | 0.00 | 92 | 1014.3 |
| 20260901111456 | 69 | 180 | 0.0 | 0.0 | 0.00 | 0.01 | 0.00 | 92 | 1014.4 |
| 20260901110454 | 69 | 180 | 0.0 | 0.0 | 0.00 | 0.01 | 0.00 | 92 | 1014.3 |
| 20260901105456 | 69 | 180 | 0.0 | 0.0 | 0.00 | 0.01 | 0.00 | 92 | 1014.2 |
| 20260901104453 | 69 | 180 | 0.0 | 0.0 | 0.00 | 0.01 | 0.00 | 92 | 1014.1 |
| 20260901103451 | 69 | 180 | 0.0 | 0.0 | 0.00 | 0.01 | 0.00 | 92 | 1014.1 |
| 20260901102453 | 69 | 180 | 0.0 | 0.0 | 0.00 | 0.01 | 0.00 | 92 | 1014.2 |
| 20260901101450 | 70 | 180 | 0.0 | 0.0 | 0.00 | 0.01 | 0.00 | 92 | 1013.9 |
| 20260901100447 | 70 | 180 | 0.0 | 0.0 | 0.00 | 0.01 | 0.00 | 92 | 1013.9 |
| 20260901095449 | 70 | 180 | 0.0 | 0.0 | 0.00 | 0.01 | 0.00 | 92 | 1013.9 |
| 20260901094447 | 70 | 180 | 0.0 | 0.0 | 0.00 | 0.01 | 0.00 | 92 | 1014.0 |
| 20260901093451 | 70 | 180 | 0.0 | 0.0 | 0.00 | 0.01 | 0.00 | 92 | 1014.0 |
| 20260901092453 | 70 | 180 | 0.0 | 0.0 | 0.00 | 0.01 | 0.00 | 92 | 1014.1 |
| 20260901091449 | 70 | 180 | 0.0 | 0.0 | 0.00 | 0.01 | 0.00 | 91 | 1014.0 |
| 20260901090448 | 70 | 180 | 0.0 | 0.0 | 0.00 | 0.01 | 0.00 | 91 | 1013.9 |
| 20260901085441 | 70 | 180 | 0.0 | 0.0 | 0.00 | 0.01 | 0.00 | 91 | 1013.8 |
| 20260901084442 | 70 | 180 | 0.0 | 0.0 | 0.00 | 0.01 | 0.00 | 90 | 1013.7 |
| 20260901083443 | 71 | 180 | 0.0 | 0.0 | 0.00 | 0.01 | 0.00 | 90 | 1013.6 |
| 20260901082443 | 71 | 180 | 0.0 | 0.0 | 0.00 | 0.01 | 0.00 | 90 | 1013.7 |
| 20260901081441 | 71 | 180 | 0.0 | 0.0 | 0.00 | 0.01 | 0.00 | 90 | 1013.7 |
| 20260901080442 | 71 | 180 | 0.0 | 0.0 | 0.00 | 0.01 | 0.00 | 90 | 1013.7 |
| 20260901075441 | 71 | 180 | 0.0 | 0.0 | 0.00 | 0.01 | 0.00 | 89 | 1013.7 |
| 20260901074444 | 72 | 180 | 0.0 | 0.0 | 0.00 | 0.01 | 0.00 | 89 | 1013.6 |
| 20260901073457 | 72 | 180 | 0.0 | 0.0 | 0.00 | 0.01 | 0.00 | 89 | 1013.6 |
| 20260901072443 | 72 | 180 | 0.0 | 0.0 | 0.00 | 0.01 | 0.00 | 89 | 1013.7 |
| 20260901071437 | 73 | 180 | 0.0 | 0.0 | 0.00 | 0.01 | 0.00 | 89 | 1013.7 |
| 20260901070434 | 73 | 180 | 0.0 | 0.0 | 0.00 | 0.01 | 0.00 | 88 | 1013.9 |
| 20260901065434 | 73 | 180 | 0.0 | 0.0 | 0.00 | 0.01 | 0.00 | 88 | 1013.8 |
| 20260901064437 | 73 | 180 | 0.0 | 0.0 | 0.00 | 0.01 | 0.00 | 88 | 1013.7 |
| 20260901063436 | 74 | 180 | 0.0 | 0.0 | 0.00 | 0.01 | 0.00 | 88 | 1013.7 |
| 20260901062437 | 74 | 180 | 0.0 | 0.0 | 0.00 | 0.01 | 0.00 | 88 | 1013.8 |
| 20260901061435 | 74 | 180 | 0.0 | 0.0 | 0.00 | 0.01 | 0.00 | 88 | 1013.8 |
| 20260901060438 | 74 | 180 | 0.0 | 0.0 | 0.00 | 0.01 | 0.00 | 88 | 1013.8 |
| 20260901055431 | 74 | 180 | 0.0 | 0.0 | 0.00 | 0.01 | 0.00 | 88 | 1013.9 |
| 20260901054430 | 74 | 190 | 0.0 | 1.7 | 0.00 | 0.01 | 0.00 | 88 | 1014.1 |
| 20260901053429 | 74 | 184 | 0.0 | 3.5 | 0.00 | 0.01 | 0.00 | 88 | 1014.2 |
| 20260901052426 | 74 | 186 | 0.0 | 1.7 | 0.00 | 0.01 | 0.00 | 87 | 1014.2 |
| 20260901051424 | 74 | 171 | 0.0 | 3.5 | 0.00 | 0.01 | 0.00 | 87 | 1014.2 |
| 20260901050424 | 75 | 224 | 0.0 | 1.7 | 0.00 | 0.01 | 0.00 | 87 | 1014.2 |
| 20260901045425 | 75 | 224 | 0.0 | 3.5 | 0.00 | 0.01 | 0.00 | 87 | 1014.1 |
| 20260901044427 | 74 | 208 | 0.0 | 3.5 | 0.00 | 0.01 | 0.00 | 87 | 1014.1 |
| 20260901043424 | 74 | 172 | 0.0 | 6.1 | 0.00 | 0.01 | 0.00 | 87 | 1014.1 |
| 20260901042425 | 74 | 219 | 1.7 | 7.8 | 0.00 | 0.01 | 0.00 | 87 | 1014.0 |
| 20260901041423 | 74 | 186 | 1.7 | 6.1 | 0.00 | 0.01 | 0.00 | 87 | 1013.9 |
| 20260901040424 | 74 | 213 | 1.7 | 7.8 | 0.00 | 0.01 | 0.00 | 87 | 1014.1 |
| 20260901035423 | 74 | 178 | 0.0 | 4.3 | 0.00 | 0.01 | 0.01 | 86 | 1014.1 |
| 20260901034427 | 74 | 183 | 1.7 | 7.8 | 0.00 | 0.01 | 0.01 | 86 | 1014.1 |
| 20260901033423 | 74 | 200 | 3.5 | 7.8 | 0.00 | 0.01 | 0.01 | 85 | 1014.1 |
| 20260901032421 | 73 | 212 | 3.5 | 9.6 | 0.00 | 0.01 | 0.01 | 85 | 1014.2 |
| 20260901031423 | 73 | 181 | 3.5 | 10.4 | 0.00 | 0.01 | 0.01 | 85 | 1014.2 |
| 20260901030421 | 73 | 184 | 1.7 | 6.1 | 0.00 | 0.01 | 0.01 | 85 | 1014.2 |
| 20260901025422 | 73 | 219 | 1.7 | 4.3 | 0.00 | 0.01 | 0.01 | 84 | 1014.2 |
| 20260901024422 | 73 | 215 | 1.7 | 6.1 | 0.00 | 0.01 | 0.01 | 85 | 1014.2 |
| 20260901023425 | 73 | 201 | 1.7 | 4.3 | 0.00 | 0.01 | 0.01 | 85 | 1014.1 |
| 20260901022417 | 73 | 195 | 1.7 | 4.3 | 0.00 | 0.01 | 0.01 | 85 | 1014.2 |
| 20260901021417 | 73 | 187 | 1.7 | 6.1 | 0.00 | 0.01 | 0.01 | 85 | 1014.2 |
| 20260901020413 | 72 | 194 | 3.5 | 7.8 | 0.00 | 0.01 | 0.01 | 86 | 1014.3 |
| 20260901015413 | 72 | 191 | 3.5 | 7.8 | 0.00 | 0.01 | 0.01 | 87 | 1014.4 |
| 20260901014413 | 72 | 181 | 3.5 | 9.6 | 0.00 | 0.01 | 0.01 | 87 | 1014.4 |
| 20260901013414 | 73 | 164 | 3.5 | 7.8 | 0.00 | 0.01 | 0.01 | 88 | 1014.1 |
| 20260901012417 | 73 | 182 | 1.7 | 6.1 | 0.00 | 0.01 | 0.01 | 88 | 1014.2 |
| 20260901011409 | 73 | 194 | 1.7 | 6.1 | 0.00 | 0.01 | 0.01 | 88 | 1014.0 |
| 20260901010411 | 73 | 209 | 1.7 | 4.3 | 0.00 | 0.01 | 0.01 | 88 | 1013.9 |
| 20260901005409 | 73 | 198 | 0.0 | 4.3 | 0.00 | 0.01 | 0.01 | 88 | 1013.7 |
| 20260901004412 | 73 | 202 | 0.0 | 3.5 | 0.00 | 0.01 | 0.01 | 87 | 1013.6 |
| 20260901003411 | 74 | 174 | 1.7 | 4.3 | 0.00 | 0.01 | 0.01 | 87 | 1013.4 |
| 20260901002409 | 74 | 174 | 1.7 | 6.1 | 0.00 | 0.01 | 0.01 | 87 | 1013.4 |
| 20260901001408 | 74 | 168 | 1.7 | 4.3 | 0.00 | 0.01 | 0.01 | 87 | 1013.4 |
| 20260901000413 | 74 | 174 | 1.7 | 4.3 | 0.00 | 0.01 | 0.01 | 86 | 1013.6 |
| 20260831235412 | 74 | 157 | 1.7 | 4.3 | 0.00 | 0.01 | 0.01 | 86 | 1013.6 |
| 20260831234417 | 74 | 175 | 1.7 | 4.3 | 0.00 | 0.01 | 0.01 | 86 | 1013.6 |
| 20260831233404 | 75 | 146 | 1.7 | 6.1 | 0.00 | 0.01 | 0.01 | 86 | 1013.7 |
| 20260831232405 | 75 | 162 | 3.5 | 6.1 | 0.00 | 0.01 | 0.01 | 87 | 1013.7 |
| 20260831231405 | 75 | 200 | 3.5 | 7.8 | 0.00 | 0.01 | 0.01 | 87 | 1013.9 |
| 20260831230404 | 75 | 209 | 1.7 | 4.3 | 0.00 | 0.01 | 0.01 | 87 | 1013.9 |
| 20260831225403 | 75 | 239 | 1.7 | 4.3 | 0.00 | 0.01 | 0.01 | 87 | 1014.1 |
| 20260831224402 | 75 | 225 | 3.5 | 6.1 | 0.00 | 0.01 | 0.01 | 87 | 1014.2 |
| 20260831223403 | 74 | 183 | 3.5 | 9.6 | 0.00 | 0.01 | 0.01 | 88 | 1014.4 |
| 20260831222402 | 75 | 229 | 3.5 | 9.6 | 0.00 | 0.01 | 0.01 | 88 | 1014.5 |
| 20260831221404 | 75 | 192 | 1.7 | 7.8 | 0.00 | 0.01 | 0.01 | 89 | 1014.6 |
| 20260831220359 | 74 | 161 | 3.5 | 7.8 | 0.00 | 0.01 | 0.01 | 89 | 1014.7 |
| 20260831215357 | 74 | 172 | 1.7 | 7.8 | 0.00 | 0.01 | 0.01 | 89 | 1015.0 |
| 20260831214358 | 74 | 184 | 3.5 | 7.8 | 0.00 | 0.01 | 0.01 | 89 | 1014.5 |
| 20260831213355 | 74 | 159 | 3.5 | 6.1 | 0.00 | 0.01 | 0.01 | 90 | 1014.6 |
| 20260831212355 | 74 | 159 | 3.5 | 7.8 | 0.00 | 0.01 | 0.01 | 90 | 1014.7 |
| 20260831211356 | 74 | 185 | 1.7 | 6.1 | 0.00 | 0.01 | 0.01 | 90 | 1015.1 |
| 20260831210356 | 74 | 161 | 3.5 | 7.8 | 0.00 | 0.01 | 0.01 | 90 | 1014.9 |
| 20260831205354 | 74 | 191 | 3.5 | 6.1 | 0.00 | 0.01 | 0.01 | 90 | 1014.8 |
| 20260831204407 | 74 | 166 | 3.5 | 9.6 | 0.00 | 0.01 | 0.01 | 90 | 1014.9 |
| 20260831203356 | 74 | 169 | 3.5 | 7.8 | 0.00 | 0.01 | 0.01 | 90 | 1015.1 |
| 20260831202353 | 73 | 139 | 3.5 | 7.8 | 0.00 | 0.01 | 0.01 | 91 | 1015.1 |
| 20260831201355 | 73 | 138 | 3.5 | 6.1 | 0.00 | 0.01 | 0.01 | 91 | 1015.5 |
| 20260831200354 | 73 | 130 | 1.7 | 6.1 | 0.00 | 0.01 | 0.01 | 92 | 1015.5 |
| 20260831195354 | 73 | 142 | 1.7 | 6.1 | 0.01 | 0.01 | 0.01 | 92 | 1015.7 |
| 20260831194352 | 73 | 55 | 0.0 | 4.3 | 0.01 | 0.01 | 0.01 | 93 | 1015.8 |
| 20260831193356 | 73 | 50 | 0.0 | 3.5 | 0.01 | 0.01 | 0.01 | 93 | 1016.1 |
| 20260831192353 | 73 | 42 | 0.0 | 3.5 | 0.01 | 0.01 | 0.01 | 92 | 1016.4 |